This is the latest recevied weather packets stored in our database for station/object KC5TIL-3. If no packets are shown the sender has not sent any weather packets the latest 10 day(s).
| Time | Temp. | Humidity | Pressure | Rain* | Wind** | Luminosity | Snow |
|---|---|---|---|---|---|---|---|
| 1787433052 | 41.11° C | 10% | 1011.8 hPa | 0 mm | 3.13 m/s, 138° | - | - |
| 1787432749 | 41.11° C | 10% | 1011.8 hPa | 0 mm | 1.79 m/s, 239° | - | - |
| 1787432441 | 40° C | 10% | 1011.8 hPa | 0 mm | 1.34 m/s, 173° | - | - |
| 1787432140 | 40.56° C | 10% | 1011.8 hPa | 0 mm | 3.13 m/s, 204° | - | - |
| 1787431823 | 41.11° C | 10% | 1011.8 hPa | 0 mm | 1.34 m/s, 225° | - | - |
| 1787431525 | 40° C | 10% | 1011.8 hPa | 0 mm | 1.79 m/s, 152° | - | - |
| 1787431224 | 40° C | 10% | 1011.8 hPa | 0 mm | 4.47 m/s, 123° | - | - |
| 1787430925 | 40° C | 10% | 1011.8 hPa | 0 mm | 1.34 m/s, 185° | - | - |
| 1787430623 | 40.56° C | 10% | 1011.8 hPa | 0 mm | 1.34 m/s, 207° | - | - |
| 1787430322 | 40.56° C | 10% | 1011.8 hPa | 0 mm | 3.13 m/s, 135° | - | - |
| 1787430023 | 40.56° C | 10% | 1011.8 hPa | 0 mm | 0 m/s | - | - |
| 1787429725 | 41.11° C | 10% | 1012.8 hPa | 0 mm | 1.79 m/s, 99° | - | - |
| 1787429424 | 40° C | 10% | 1012.8 hPa | 0 mm | 3.13 m/s, 122° | - | - |
| 1787429126 | 40.56° C | 10% | 1012.8 hPa | 0 mm | 0 m/s | - | - |
| 1787428828 | 40° C | 10% | 1012.8 hPa | 0 mm | 0 m/s | - | - |
| 1787428526 | 40.56° C | 10% | 1012.8 hPa | 0 mm | 1.79 m/s, 244° | - | - |
| 1787428228 | 40.56° C | 10% | 1012.8 hPa | 0 mm | 1.34 m/s, 313° | - | - |
| 1787427930 | 39.44° C | 10% | 1012.8 hPa | 0 mm | 2.68 m/s, 287° | - | - |
| 1787427629 | 39.44° C | 10% | 1012.8 hPa | 0 mm | 3.58 m/s, 114° | - | - |
| 1787427330 | 40° C | 10% | 1012.8 hPa | 0 mm | 4.02 m/s, 123° | - | - |
| 1787427032 | 39.44° C | 10% | 1012.8 hPa | 0 mm | 1.79 m/s, 121° | - | - |
| 1787426731 | 38.89° C | 10% | 1012.8 hPa | 0 mm | 2.24 m/s, 107° | - | - |
| 1787426433 | 39.44° C | 10% | 1012.8 hPa | 0 mm | 0 m/s | - | - |
| 1787426135 | 38.89° C | 10% | 1012.8 hPa | 0 mm | 1.79 m/s, 19° | - | - |
| 1787425833 | 40° C | 10% | 1012.8 hPa | 0 mm | 1.79 m/s, 312° | - | - |
* Rain latest hour (hover to see other rain measurements)
** Current wind speed in m/s (hover to see current wind gust speed)